User: anonymous   Login
Location: Drayton Valley
(53.2170°N, 114.9830°W)
Time: 00:23:52
(UTC-06:00)
Language:

Cosmos 1302 Rocket - Orbit

View from above orbital plane
View from above orbital plane
View from above satellite
View from above satellite

Ground track
Ground track

The orbit data is extracted from the following two-line orbital elements,

1 12792U 81084B   17080.35556345 +.00000060 +00000-0 +28836-4 0  9991
2 12792 074.0309 197.0791 0013014 147.8379 212.3571 14.37462972862437
Epoch (UTC): 21 March 2017 08:32:00
Eccentricity: 0.0013014
inclination: 74.0309°
perigee height: 757 km
apogee height: 776 km
right ascension of ascending node: 197.0791°
argument of perigee: 147.8379°
revolutions per day: 14.37462972
mean anomaly at epoch: 212.3571°
orbit number at epoch: 86243

The dashed part of the orbit path shows where the satellite is in the earth's shadow,  

DLR